Snowfall_Accumulation
1.1 0.0 0.0 0.0 0.0 0.0 0.0 0.0 0.0 0.0 0.0 0.0 0.0 0.0 0.0 0.0 0.0 0.0 0.0 0.0 0.0 0.0 0.0 0.0 0.0 0.0 0.0
0.1 0.0 0.0 0.0 0.0 0.0 0.0 0.0 0.0 0.0 0.0 0.0 0.0 0.0 0.0 0.0 0.1 0.0 0.0 0.0 0.0 0.0 0.0 0.0 0.0 0.0 0.0
0.1 0.0 0.0 0.0 0.0 0.0 0.0 0.0 0.0 0.0 0.0 0.0 0.0 0.0 0.0 0.0 0.0 0.4 0.2 0.0 0.0 0.0 0.0 0.0 0.0 0.0 0.0
0.1 1.2 0.3 0.1 0.4 0.2 0.0 0.0 0.0 0.0 0.0 0.0 0.0 0.0 0.0 0.0 0.0 0.0 0.0 0.0 0.0 0.1 0.0 0.0 0.0 0.0 0.0
2.7 1.7 1.4 0.0 0.0 0.0 0.1 0.0 0.1 0.0 0.0 0.0 0.0 0.0 0.0 0.0 0.0 0.0 0.0 0.1 0.1 0.2 0.2 0.1 0.2 0.0 0.0
4.6 0.9 0.1 0.1 0.0 0.2 1.3 1.3 1.4 0.0 0.2 0.2 0.0 0.0 0.0 0.0 0.0 0.0 0.1 0.2 0.0 0.5 0.6 0.7 0.0 0.0 0.0
0.5 0.3 0.4 0.1 1.9 2.5 1.8 3.3 2.3 0.0 0.3 0.4 0.0 0.0 0.0 0.0 0.0 0.0 0.1 0.1 0.2 0.4 0.7 0.6 0.7 0.0 0.0
0.2 0.4 1.1 0.7 1.4 2.6 3.4 2.0 0.4 0.1 0.3 1.8 0.2 0.1 0.0 0.0 0.0 0.0 0.0 0.2 0.4 0.7 0.7 0.7 0.8 0.6 0.3
0.6 0.5 0.3 0.0 0.0 2.3 2.8 3.1 2.1 0.2 0.1 0.7 0.3 0.4 0.2 0.1 0.0 0.0 0.4 0.1 0.6 0.4 0.6 0.4 0.6 0.3 0.0
0.1 0.1 0.0 0.0 0.0 0.6 5.4 10.4 5.2 3.6 0.1 4.3 1.7 1.4 5.1 2.1 1.7 1.4 0.1 0.0 0.0 0.1 0.3 0.5 0.4 0.7 1.0
0.0 0.0 0.0 0.0 0.2 0.7 2.5 9.0 11.6 7.2 0.2 9.0 10.1 1.2 8.4 5.3 3.5 3.7 2.9 0.1 0.2 0.0 0.0 0.4 0.7 0.8 3.2
0.2 0.2 0.2 0.2 0.2 0.3 0.4 2.3 4.3 8.9 2.9 4.8 18.2 9.7 12.9 9.0 4.8 5.1 2.6 3.9 2.4 1.4 0.6 0.6 0.6 1.2 1.3
1.7 1.2 2.2 1.6 2.4 4.7 6.8 7.0 7.9 9.1 9.1 8.0 11.8 11.7 12.8 11.7 8.2 5.0 6.9 6.1 4.7 6.5 4.5 2.2 3.0 1.7 2.2
4.4 3.8 4.9 6.0 6.1 7.3 10.6 9.3 10.4 8.3 6.5 6.5 7.8 9.2 9.4 5.3 9.1 7.8 6.3 10.9 10.3 9.9 9.6 5.0 1.7 0.9 0.8
3.7 3.9 4.2 6.4 6.8 8.4 12.0 11.3 10.7 7.5 5.8 6.0 5.7 4.0 4.5 6.0 9.2 6.1 9.7 8.3 10.9 14.8 12.5 6.8 5.2 2.2 1.6
6.2 6.4 8.1 10.2 12.7 14.2 14.3 13.3 12.1 8.2 9.3 6.6 6.9 8.1 8.6 6.1 10.1 12.6 10.9 11.6 14.2 16.0 13.6 8.1 7.1 4.2 0.2
9.1 9.1 11.2 14.0 15.8 14.6 13.2 11.7 9.9 8.2 6.7 6.4 9.3 12.3 14.5 8.7 7.0 10.0 15.9 14.5 12.0 12.9 13.6 8.9 9.1 7.0 0.8